This is the latest recevied weather packets stored in our database for station/object EA1HTW-13. If no packets are shown the sender has not sent any weather packets the latest 10 day(s).
| Time | Temp. | Humidity | Pressure | Rain* | Wind** | Luminosity | Snow |
|---|---|---|---|---|---|---|---|
| 1777947434 | 12.78° C | 80% | 1009.9 hPa | 1.78 mm | - | - | - |
| 1777946895 | 12.78° C | 80% | 1009.9 hPa | 1.78 mm | - | - | - |
| 1777946354 | 12.78° C | 80% | 1010 hPa | 1.52 mm | - | - | - |
| 1777945815 | 12.78° C | 79% | 1010.2 hPa | 1.27 mm | - | - | - |
| 1777945274 | 12.78° C | 79% | 1010 hPa | 0.51 mm | - | - | - |
| 1777944735 | 12.78° C | 78% | 1010.2 hPa | 0 mm | - | - | - |
| 1777944195 | 12.78° C | 79% | 1010.2 hPa | 0 mm | - | - | - |
| 1777943656 | 12.78° C | 79% | 1010.1 hPa | 0 mm | - | - | - |
| 1777943114 | 12.78° C | 78% | 1010.3 hPa | 0.25 mm | - | - | - |
| 1777942574 | 12.78° C | 78% | 1010.3 hPa | 0.25 mm | - | - | - |
| 1777942035 | 12.78° C | 77% | 1010.5 hPa | 0.25 mm | - | - | - |
| 1777941495 | 13.33° C | 77% | 1010.4 hPa | 1.02 mm | - | - | - |
| 1777940955 | 13.33° C | 77% | 1010.3 hPa | 1.27 mm | - | - | - |
| 1777940416 | 13.33° C | 77% | 1010.4 hPa | 1.27 mm | - | - | - |
| 1777939876 | 13.33° C | 76% | 1010.5 hPa | 1.02 mm | - | - | - |
| 1777939335 | 13.33° C | 76% | 1010.3 hPa | 1.02 mm | - | - | - |
| 1777938795 | 13.33° C | 75% | 1010.4 hPa | 1.02 mm | - | - | - |
| 1777938254 | 13.33° C | 75% | 1010.4 hPa | 1.02 mm | - | - | - |
| 1777937713 | 13.33° C | 74% | 1010.4 hPa | 0.51 mm | - | - | - |
| 1777937175 | 13.89° C | 73% | 1010.5 hPa | 0.51 mm | - | - | - |
| 1777936634 | 13.89° C | 73% | 1010.4 hPa | 0.51 mm | - | - | - |
| 1777936095 | 13.89° C | 72% | 1010.4 hPa | 0.51 mm | - | - | - |
| 1777935554 | 13.89° C | 71% | 1010.4 hPa | 0.51 mm | - | - | - |
| 1777935014 | 13.89° C | 71% | 1010.6 hPa | 0.51 mm | - | - | - |
| 1777934475 | 13.89° C | 70% | 1010.6 hPa | 0.51 mm | - | - | - |
* Rain latest hour (hover to see other rain measurements)
** Current wind speed in m/s (hover to see current wind gust speed)